Regional Weather Roundup
Issued by NWS Green Bay, WI

Home | Current Version | Previous Version | Graphics & Text | Print | Product List | Glossary Off
Versions: 1 2 3 4 5 6 7 8 9 10 11 12 13 14 15 16 17 18 19 20 21 22 23 24 25 26 27 28 29 30 31 32 33 34 35 36 37 38 39 40 41 42 43 44 45 46 47 48 49 50

000
ASUS43 KGRB 280710
RWRGRB

NORTH-CENTRAL AND NORTHEAST WISCONSIN REGIONAL WEATHER ROUNDUP
NATIONAL WEATHER SERVICE GREEN BAY WI
100 AM CST WED JAN 28 2015

WIZ005-009-010>012-018-019-280800-
NORTH CENTRAL WISCONSIN

CITY           SKY/WX    TMP DP  RH WIND       PRES   REMARKS
IRONWOOD       MOCLDY    25  19  80 S5        30.08F
MANITOWISH WTR CLOUDY    22  20  93 S6        30.11F
ARBOR VITAE    CLOUDY    23  20  87 S7        30.12F
EAGLE RIVER    CLOUDY    22  18  84 CALM      30.13F
LAND O LAKES   CLOUDY    22  19  89 SW6       30.13F
RHINELANDER    CLOUDY    22  18  85 SW7       30.14F
PHILLIPS       CLOUDY    23  21  92 S6        30.12F FOG
ANTIGO         CLOUDY    21  18  89 S6        30.16F
TOMAHAWK       CLOUDY    22  20  89 CALM      30.15F
MERRILL        CLOUDY    23  22  93 S5        30.17S
$$

WIZ013-073-280800-
NORTHEAST WISCONSIN

CITY           SKY/WX    TMP DP  RH WIND       PRES   REMARKS
IRON MOUNTAIN  CLOUDY    22  17  81 S6        30.18S
MARINETTE      CLOUDY    19  16  86 SW6       30.24F
OCONTO         CLOUDY    12  11  95 CALM      30.25F
$$

WIZ017-030-035>037-045-280800-
CENTRAL WISCONSIN

CITY           SKY/WX    TMP DP  RH WIND       PRES   REMARKS
MEDFORD        CLOUDY    23  21  93 S8        30.14F FOG
WAUSAU         CLOUDY    23  19  85 SE6       30.17F
MOSINEE        CLOUDY    23  21  93 SE3       30.19S
MARSHFIELD     CLOUDY    24  21  88 S7        30.17F FOG
WISC RAPIDS    CLOUDY    24  19  81 S3        30.20F
STEVENS POINT  CLOUDY    22  18  84 SE3       30.20F
WAUPACA        CLOUDY    25  19  79 CALM      30.23S
SHAWANO        CLOUDY    25  18  75 CALM      30.23F
CLINTONVILLE   CLOUDY    23  18  80 CALM      30.23S
$$

WIZ038-039-048-051-280800-
FOX VALLEY

CITY           SKY/WX    TMP DP  RH WIND       PRES   REMARKS
NWS GREEN BAY  MOCLDY    17  14  88 CALM      30.25F
APPLETON       CLOUDY    23  18  80 CALM      30.23F
OSHKOSH        MOCLDY    22  16  78 S3        30.23S
FOND DU LAC    MOCLDY    23  17  78 S5        30.23F
$$

WIZ022-050-052-280800-
EAST CENTRAL WISCONSIN

CITY           SKY/WX    TMP DP  RH WIND       PRES   REMARKS
STURGEON BAY   CLOUDY    19  16  86 W3        30.27S
MANITOWOC      CLOUDY    22  17  81 CALM      30.27R
SHEBOYGAN      CLOUDY    25  18  74 W3        30.24S
$$

LMZ563-521-522-541>543-280800-
LAKESHORE

STATION/POSITION TIME  TEMP    WIND        PRES    VSBY  WAVE
                       AIR SEA DIR/SP/G                  HT/PER
                 (UTC) (F)     (DEG/KT/KT) (MB)    (MI)  (FT/S)
SHEBOYGAN LKSHOR 0700   26     270/  4/  5 1025.7R
KEWAUNEE LKSHORE 0700   22     260/  2/  4 1023.8R
NORTHPORT PIER   0700   20      CALM  /  2 1024.7R
CHAMBERS ISLAND  0700   16     180/  2/  3 1024.4S
MENOMINEE LKSHOR 0700   20     200/  4     1025.0F
$$


USA.gov is the U.S. government's official web portal to all federal, state and local government web resources and services.